Weather in Campulung Moldovenesc

Romania     47°31′31″N   25°34′34″E
В апреле 2022 года жителям России запретили посещать сайт meteo.paraplan.net по решению Генеральной прокуратуры. Аудитория сайта уменьшилась в 10 раз. Владельцы сайта не видят смысла в поддержке погодного сервера в таких условиях. Сайт будет закрыт в октябре.
temp.,
°C
wind,
m/s
gust,
m/s
humid.,
%
clouds,
%
prec.,
mm/h
press.,
hPa
HPBL,
m
30 september, fri
fri3000:00+7sw22964 0.0 101034
03:00+7sw22955 0.0 101221
06:00+7sw2195100 0.0 101215
09:00+10sw1288100 0.0 101264
12:00+14s1373100 0.0 1013347
15:00+17wsw145881 0.2 1013990
18:00+15wsw386982 0.1 1014577
21:00+10ssw22902 0.1 101638
1 october, sat
sat100:00+9ssw229471 0.0 101724
03:00+9ssw229476 0.0 101834
06:00+9ssw2295100 0.0 101941
09:00+12ssw2386100 0.0 1018113
12:00+18sw51154100 0.0 10171649
15:00+19wsw51148100 0.0 10151819
18:00+16sw2568100 0.0 1014149
21:00+11ssw2285100 0.0 101328
2 october, sun
sun200:00+11sw2286100 0.0 101222
03:00+11wsw2492100 0.6 1011197
06:00+9sw2395100 0.7 101062
09:00+11wsw1292100 0.9 1010129
12:00+7n2595100 3.4 1014524
15:00+10nnw2683100 4.3 1013676
18:00+9wnw258468 1.8 1014209
21:00+6wsw2294100 2.6 101632
3 october, mon
mon300:00+5wsw229610 0.0 101658
03:00+4wsw229830 0.0 101772
06:00+3wsw229794 0.0 101731
09:00+6wsw1491100 0.6 1017558
12:00+6wsw128997 2.0 1017335
15:00+9w257530 2.4 1016884
18:00+8wsw23816 0.4 1017147
21:00+3sw219686 0.4 102016
4 october, tue
tue400:00+4wsw229081 0.0 101934
03:00+4sw2294100 0.0 101939
06:00+4wsw239597 0.0 101986
09:00+6wsw248681 0.0 1018354
12:00+8wsw2679100 0.1 10181009
15:00+8wsw278196 0.3 1018793
18:00+7w128884 0.2 101885
21:00+4wsw219726 0.3 102115